Voltar ao catálogo

FENGYUN 1C DEB

AtivoSSO
NORAD 30732·DEBRIS·🇨🇳 China

Lançado May 10, 1999 de Taiyuan Satellite Launch Center

Loading…

Próximas Passagens (próximas 24 horas)

TLE

AtualizadoSource: Space-Track

Época: Sep 14, 2026, 22:14 UTC

1 30732U 99025ASS 26257.92684124  .00000695  00000-0  43397-3 0  9997
2 30732  98.7893 274.2999 0124311 155.6933 322.0952 14.04180220   664

Acompanhe FENGYUN 1C DEB em tempo real com AllMySat

Download on the App Store